Retour au catalogue

STARLINK-35687

ActifCommunicationsVLEO
NORAD 66524·PAYLOAD·🇺🇸 United States

Lancé Nov 19, 2025 depuis Cape Canaveral Space Force Station

Loading…

Prochains Passages (prochaines 24 heures)

TLE

FraisSource: CelesTrak SupGP

Époque: Sep 14, 2026, 14:56 UTC

1 66524C 25265J   26257.62270833  .00035835  00000+0  12989-2 0  2577
2 66524  43.0029 291.3320 0001591 268.5255  99.3900 15.27536576    10

Suivez STARLINK-35687 en temps réel avec AllMySat

Download on the App Store